sat.trackr.live / text

‹ back to catalog

STARLINK-35590

NORAD 66108 · 2025-236Y

PAYLOAD ACTIVE UNKNOWN

§ Identity

Operator
Country
US
Launch date
2025-10-19
Launch site
AFWTR
Launch vehicle
Mass (kg)
RCS (m²)

Purposes: comms

External: N2YO · Heavens-Above · Gunter

§ Orbital elements

Epoch: 2026-05-25T02:19:42.343104Z

Period
94.10 min
Inclination
53.1597°
Eccentricity
0.0001301
Mean motion
15.30210017 rev/d
Perigee alt
474.3 km
Apogee alt
476.1 km
Semi-major
6,853.3 km
B*
4.3702e-4
RAAN
108.9066°
Arg perigee
107.3165°
Mean anomaly
252.7978°
Rev number
3,458

§ Raw data

STARLINK-355901 66108U 25236Y   26145.09701786  .00012610  00000+0  43702-3 0  99932 66108  53.1597 108.9066 0001301 107.3165 252.7978 15.30210017 34581

JSON: /api/v1/satellites/66108 · /tle

For live sub-satellite position, see the globe view (requires WebGL).

§ Visibility from observer

Set your observer location to see the next 7 days of passes ≥ 10°. The values pass through the URL so the page stays shareable.

No JS? Fill the form by hand. The geolocation button needs JavaScript.